Theta_e
301 301 301 301 302 302 302 302 302 302 303 303 304 304 304 304 303 303 302 308 301 294 296 297 299 301 303 304 301 305 306 308 309 305 304 302 302 304 304 307 306 304 303 303 304 301 298 316 314 308 316 319 317 317
301 301 301 301 302 301 302 302 302 301 302 303 304 303 303 304 303 303 300 307 306 297 297 301 302 304 304 306 302 306 305 310 311 308 309 309 305 308 306 299 311 303 308 305 306 306 319 319 317 322 322 318 318 318
300 301 301 301 301 301 301 302 302 301 301 302 303 303 304 304 304 303 304 304 302 296 297 297 297 303 305 306 309 300 308 308 312 313 310 310 306 311 303 303 307 312 315 309 309 314 315 318 323 322 320 318 320 322
300 300 301 301 300 301 301 301 301 300 301 302 303 303 303 304 303 303 302 305 300 297 292 298 307 303 307 308 307 307 307 309 309 310 308 307 306 309 306 309 307 309 313 311 311 314 316 317 319 321 321 323 322 323
299 300 300 300 300 300 301 301 300 300 301 302 302 303 303 303 303 304 304 304 304 295 291 296 303 305 306 305 305 305 306 305 306 307 306 306 312 309 312 311 309 315 311 306 305 315 314 315 320 321 321 320 321 321
299 299 300 300 300 300 300 300 301 300 301 301 302 303 302 303 303 302 296 302 304 303 295 291 303 303 305 305 304 304 304 305 305 306 306 308 310 307 303 304 310 313 314 319 315 320 321 324 323 320 320 321 321 321
299 299 299 300 300 300 300 300 300 300 300 301 301 301 302 302 303 297 295 301 305 307 295 293 295 302 304 304 305 304 305 302 302 304 305 305 307 306 304 300 309 313 316 316 319 319 318 320 318 321 322 322 320 321
299 299 299 300 300 300 300 299 300 300 300 299 300 302 302 302 302 298 303 303 305 301 300 291 295 298 304 299 299 305 301 301 301 301 304 302 307 307 300 308 311 312 313 315 317 320 319 322 323 323 322 321 319 318
299 299 299 299 300 300 300 299 299 299 299 299 299 301 302 299 297 303 305 305 305 301 292 294 291 292 303 300 300 301 302 296 302 297 299 302 301 299 304 307 308 310 311 313 316 317 318 318 320 321 320 319 318 318
299 299 299 299 299 300 299 299 299 299 300 300 299 296 293 300 304 304 300 296 295 297 297 293 299 293 300 298 297 298 299 295 293 296 302 297 297 307 308 310 310 309 310 310 309 311 313 314 316 319 319 320 319 317
299 299 300 299 299 300 299 299 298 299 299 298 295 293 301 303 300 294 292 291 293 291 295 295 295 295 302 296 296 298 296 296 290 294 294 294 295 302 308 308 309 309 310 310 312 313 314 313 313 315 317 318 318 318
300 300 300 299 300 300 299 299 298 298 300 298 299 302 303 296 293 289 289 291 290 288 294 292 294 297 300 303 299 299 295 296 288 298 293 290 297 305 306 306 308 308 309 308 310 310 311 311 312 315 316 317 318 319
300 300 300 299 299 300 299 299 299 300 301 302 297 293 292 292 285 284 283 287 288 293 295 295 293 298 299 302 297 296 289 291 302 292 290 296 305 305 305 306 307 310 309 308 307 307 308 312 311 314 315 317 319 319
300 300 300 299 299 299 299 298 299 300 298 293 290 283 287 286 288 289 292 293 297 298 295 296 295 295 297 295 292 289 294 295 290 288 290 300 302 304 305 306 306 307 308 308 307 307 306 308 309 313 316 317 317 318
300 300 299 299 299 299 298 299 299 300 296 290 291 283 287 293 294 297 298 299 300 301 298 296 296 298 294 291 294 291 289 287 290 291 298 299 303 303 303 304 305 306 308 308 310 310 310 311 311 312 314 316 318 319
300 299 300 300 299 298 299 300 300 300 296 293 292 288 293 292 295 296 299 298 301 300 299 299 293 289 288 290 289 288 287 286 293 299 300 302 303 302 303 304 304 306 307 310 311 313 313 313 313 315 317 318 319 320
299 299 300 300 299 300 299 299 299 294 292 290 291 295 293 293 294 295 294 298 303 298 292 294 288 287 295 290 288 294 291 295 298 300 302 302 302 303 304 304 304 305 306 308 311 311 314 318 317 318 317 317 319 320
300 300 300 300 300 298 300 298 295 293 289 292 290 294 296 294 292 293 297 302 300 298 296 292 296 290 288 286 288 295 297 300 300 300 301 303 305 304 304 304 304 305 306 307 311 312 313 315 315 317 317 317 317 318
300 301 300 299 299 298 294 295 297 290 292 294 295 296 295 295 298 300 301 301 302 303 299 298 291 291 293 296 296 297 298 299 298 299 301 304 305 304 304 305 305 306 306 307 309 312 313 313 313 317 316 316 314 314
300 300 299 299 299 298 292 295 299 293 292 295 297 295 297 297 297 301 301 301 302 300 295 294 296 297 299 299 300 300 300 302 302 300 299 302 305 305 305 305 306 306 307 308 308 296 313 314 315 314 315 314 312 312
297 299 299 300 301 300 296 296 294 296 296 295 298 298 298 298 297 298 299 300 296 297 296 299 298 298 302 301 302 302 301 302 300 300 300 301 303 305 305 305 305 305 305 305 304 305 306 313 314 313 312 313 313 312
301 298 303 303 297 296 297 301 296 299 297 298 297 298 296 296 296 297 298 296 296 298 298 297 298 298 298 298 298 299 300 301 303 301 295 297 300 301 302 303 303 303 304 304 305 306 309 314 314 311 307 307 307 309
299 301 300 298 292 291 290 300 293 295 290 293 296 293 294 295 296 299 294 297 296 299 299 298 298 297 295 296 296 297 297 297 297 298 299 300 301 302 303 303 304 303 303 305 307 308 312 302 306 308 306 305 303 303
294 295 291 291 292 288 295 292 296 294 295 293 291 288 291 294 297 294 290 294 295 297 296 294 292 290 291 292 291 291 293 295 295 296 298 298 298 300 301 302 304 304 306 307 307 309 310 309 301 305 305 304 305 303
289 288 291 285 293 289 287 288 289 291 287 290 289 289 293 299 292 290 289 292 292 290 290 290 288 288 286 288 289 291 294 294 293 293 296 297 297 298 299 300 303 305 307 307 307 309 306 305 304 303 302 302 302 302
285 289 287 287 288 288 288 286 288 289 290 289 290 293 295 291 286 285 287 288 288 287 286 285 285 286 288 291 291 295 299 305 298 296 296 297 298 297 298 299 299 301 307 308 308 308 304 303 302 302 303 301 295 305
284 285 289 294 292 292 291 294 295 292 289 287 289 289 289 284 284 286 290 290 286 287 289 290 290 291 294 296 298 301 303 303 304 301 300 299 300 302 303 302 300 306 309 309 311 309 305 304 304 306 305 306 306 307
291 291 287 291 292 293 289 289 288 286 288 291 290 285 283 282 282 288 286 288 288 289 295 298 299 300 300 302 302 300 300 300 300 300 300 301 302 303 304 306 307 291 310 312 311 310 307 306 307 306 305 306 307 307
291 298 296 290 291 291 289 287 288 290 292 290 287 286 286 288 287 285 287 289 296 296 295 295 296 300 301 301 301 301 301 300 296 295 295 296 298 302 308 306 307 311 311 310 292 302 306 307 306 305 308 308 308 308
291 296 291 290 289 287 289 292 291 292 292 292 291 289 288 287 289 295 297 297 295 295 296 296 296 297 295 295 297 298 301 305 304 302 299 298 301 307 309 310 310 310 309 306 304 301 291 300 299 306 307 308 308 307
298 295 291 291 289 291 293 294 295 295 293 292 293 291 290 290 294 299 300 302 299 297 296 295 296 297 296 294 292 296 295 301 305 305 307 307 307 308 308 307 306 306 306 306 306 306 305 307 308 307 306 306 305 303
295 291 290 288 290 294 296 293 293 292 292 292 291 294 294 293 290 296 300 301 298 297 294 297 296 296 300 298 297 296 290 297 293 297 306 306 306 308 308 307 308 308 307 307 308 308 308 307 307 307 306 306 306 305
293 293 293 292 291 290 293 292 291 290 292 291 291 292 292 292 290 295 301 302 300 300 299 300 301 303 303 302 300 299 297 300 292 287 288 288 290 297 306 308 308 308 307 306 306 307 306 307 307 306 307 307 307 307
Wind_Speed
8 6 7 8 9 8 8 9 8 8 7 8 10 9 7 7 6 8 5 6 9 9 16 19 19 14 13 8 11 9 5 7 8 13 14 13 10 16 19 20 20 19 15 14 14 15 10 17 17 16 9 10 9 6
9 8 9 11 10 9 10 11 10 9 9 9 11 10 9 9 8 8 8 4 8 8 12 18 17 19 18 13 10 7 10 7 6 5 8 4 7 3 9 14 8 15 14 12 4 5 14 5 5 11 8 8 7 8
7 8 7 6 8 8 9 10 10 9 10 10 10 10 10 11 9 10 6 4 5 6 13 16 15 19 19 17 12 8 4 7 1 6 5 4 4 11 12 10 15 10 4 6 7 10 14 11 8 9 6 5 7 11
5 8 9 8 6 7 7 8 8 8 9 10 10 10 11 10 8 10 8 6 5 3 7 1 3 9 10 9 11 13 12 10 9 8 7 8 1 6 6 2 5 6 12 11 8 10 12 9 10 10 8 8 7 9
6 4 4 5 6 6 6 8 8 8 8 7 8 8 7 8 7 9 8 8 7 3 5 9 15 12 8 10 11 9 8 8 8 7 5 5 1 7 9 3 5 1 4 8 3 16 8 11 9 7 8 8 9 10
9 8 6 6 5 5 7 8 8 8 8 7 7 8 4 9 7 6 5 8 7 5 6 6 5 8 7 11 10 9 8 6 6 4 3 3 2 4 6 4 7 7 8 20 12 11 10 11 7 4 8 9 9 10
11 10 9 8 7 6 6 8 8 7 5 2 4 4 4 4 8 4 3 4 3 3 4 6 2 5 6 11 8 6 4 4 4 2 3 5 4 4 9 4 10 14 10 6 10 10 10 8 8 6 10 9 8 11
11 11 11 10 8 8 8 7 6 6 7 1 4 6 6 6 9 8 10 9 6 4 6 5 2 6 8 6 7 5 6 5 5 4 3 5 6 6 4 10 11 6 8 9 9 7 9 8 11 8 10 9 11 10
13 12 12 11 9 9 8 6 6 2 2 5 4 10 7 7 6 1 11 10 6 4 4 5 5 1 4 8 4 5 5 6 4 5 6 4 6 5 6 9 8 4 3 8 8 7 8 8 11 8 9 10 10 10
13 15 12 11 10 8 9 5 5 2 6 6 6 5 5 3 9 11 6 3 5 5 7 7 3 3 6 4 6 4 6 7 7 7 4 5 11 10 6 6 6 5 3 4 5 8 7 6 7 11 7 7 7 9
14 13 14 11 10 9 10 8 4 2 6 5 5 4 3 7 4 2 5 6 7 6 6 8 5 4 2 4 3 3 4 4 6 7 6 6 10 11 8 6 4 4 4 4 3 2 3 3 5 6 8 8 7 9
14 14 14 11 10 9 8 8 7 5 2 1 3 3 3 4 5 5 5 5 6 6 5 8 6 5 3 1 2 4 3 4 6 9 6 9 5 13 11 7 4 3 5 7 8 8 7 4 4 3 6 8 7 8
9 14 13 11 9 10 8 8 10 5 7 4 5 4 3 4 5 6 8 7 7 6 4 7 7 4 4 1 2 4 1 5 2 5 7 1 12 11 10 7 3 2 4 7 10 10 11 9 6 8 6 6 8 8
10 15 13 11 8 8 6 5 2 1 3 3 4 4 6 7 6 4 2 4 4 2 5 6 5 4 4 5 0 4 4 6 7 7 10 9 9 8 7 6 5 4 1 4 7 9 9 11 11 12 10 9 8 9
13 13 11 9 10 7 4 4 3 2 3 4 4 5 6 3 5 2 3 1 3 3 3 6 4 2 3 3 3 4 6 6 7 2 10 9 10 9 8 6 4 5 3 4 5 7 9 9 9 11 12 11 11 10
15 10 8 12 8 8 8 8 6 3 4 4 4 4 4 4 2 2 0 2 3 4 5 1 3 3 3 2 7 6 3 2 4 7 9 8 11 9 8 7 6 5 4 3 4 3 4 6 6 5 8 10 11 12
14 3 12 11 8 5 5 4 3 5 5 4 2 5 4 3 3 3 2 3 3 6 5 3 5 5 3 4 3 3 5 7 8 8 8 9 9 7 6 7 6 6 5 4 5 5 3 5 3 6 9 9 11 11
3 9 11 8 7 5 3 3 3 3 5 4 4 1 2 1 2 3 5 2 4 4 4 4 3 3 2 3 3 5 8 7 6 7 7 7 7 6 4 5 5 5 5 4 4 6 4 4 4 4 6 6 9 12
9 9 9 4 3 4 3 5 3 4 3 4 1 7 1 3 7 3 4 5 5 5 3 1 3 3 1 1 5 5 6 8 6 5 5 5 5 4 2 3 3 2 3 4 4 6 4 6 4 5 6 6 8 10
10 6 2 3 5 3 5 2 2 5 2 2 2 2 4 4 4 3 3 3 3 3 3 2 0 3 2 4 5 5 5 3 3 7 6 7 7 6 4 3 1 3 2 1 2 3 7 4 5 4 5 4 9 9
7 3 5 6 3 3 3 2 3 2 4 2 1 1 1 4 4 4 3 4 5 2 1 2 3 6 6 6 6 4 5 4 5 5 5 3 4 5 5 5 5 4 3 1 3 5 4 5 6 6 4 4 7 11
3 3 3 1 3 2 3 2 4 3 3 2 2 1 0 1 2 3 3 3 1 1 4 5 6 7 7 8 8 9 10 9 8 7 5 5 5 5 5 5 5 5 4 4 4 3 5 6 6 7 7 7 9 7
3 3 3 1 2 1 4 2 3 3 3 2 3 2 0 2 3 2 3 1 4 7 6 7 9 10 10 12 13 13 13 13 10 10 10 8 8 7 6 5 6 5 5 5 4 4 8 8 8 8 10 9 9 9
4 4 5 3 1 3 2 2 2 3 2 2 2 2 2 3 3 3 4 5 4 9 10 11 6 7 6 8 8 8 8 8 9 9 9 9 9 9 9 8 7 6 7 4 5 6 7 7 9 8 9 12 12 11
1 5 2 3 2 3 2 3 3 3 3 5 4 4 3 1 3 4 5 6 9 9 7 7 7 6 7 8 7 8 10 8 8 9 9 9 9 7 8 8 8 5 5 6 6 11 8 7 7 10 12 11 11 13
3 4 5 7 5 4 5 5 5 5 4 6 5 6 4 4 3 4 4 6 5 7 8 8 8 7 7 7 8 6 5 7 10 8 8 10 10 9 10 11 9 8 9 9 8 13 11 9 10 14 12 11 11 17
3 3 2 2 2 4 3 2 3 4 4 5 5 6 4 6 7 5 6 4 6 9 10 10 8 7 6 4 5 4 3 2 6 7 8 9 9 10 11 10 11 8 10 10 13 15 12 12 10 13 13 13 11 13
2 3 3 2 0 2 6 5 7 7 6 6 4 6 5 7 5 4 4 9 11 11 9 6 5 3 3 6 6 4 5 6 9 10 9 8 9 8 8 7 9 3 7 10 10 13 10 11 11 11 11 11 12 12
1 1 2 3 6 7 6 6 6 5 6 5 4 5 3 2 3 3 7 9 7 7 10 11 11 9 7 7 9 6 3 6 12 16 14 9 9 7 5 7 10 9 8 10 9 11 14 11 11 10 13 13 12 12
5 5 7 9 9 6 6 6 4 4 4 3 2 0 1 3 4 5 7 9 11 11 11 12 12 12 11 9 9 13 10 7 5 9 10 10 9 8 9 9 10 10 10 11 12 11 10 8 5 4 11 11 11 11
1 3 8 7 5 6 7 6 5 6 3 4 4 3 3 2 3 7 11 10 9 11 12 12 13 12 12 12 9 11 10 9 13 13 11 11 11 11 11 10 9 9 10 12 11 12 12 12 11 14 14 14 14 12
3 5 5 5 5 6 5 3 3 3 3 3 5 5 3 3 5 8 8 8 11 11 10 11 11 10 9 10 10 7 7 8 8 8 13 11 11 12 13 11 11 10 11 10 11 14 15 15 13 13 14 16 16 16
6 6 5 5 4 4 3 3 3 3 3 3 4 4 4 4 4 4 5 6 8 10 10 11 12 13 14 14 13 10 11 9 12 12 14 13 9 8 13 13 12 13 12 9 10 12 13 16 14 14 13 13 15 16
Wind_Direction
268 248 248 256 262 259 252 245 257 279 267 265 268 258 267 246 235 255 255 234 253 263 276 288 283 291 301 283 293 12 220 205 228 231 241 224 226 210 217 206 193 200 209 222 223 250 214 146 165 205 91 114 115 124
250 253 260 260 258 259 259 253 252 261 270 274 267 251 255 246 231 248 260 241 243 255 279 315 292 287 287 300 313 299 324 329 353 270 250 8 239 326 220 201 175 223 212 220 276 282 107 169 164 105 131 129 127 130
254 256 276 237 254 258 276 268 234 252 262 271 260 253 247 239 232 250 276 265 260 273 270 242 241 242 226 236 245 277 75 358 349 347 324 304 259 304 212 245 171 159 240 198 118 140 149 135 118 129 140 128 116 115
282 255 244 252 254 272 253 238 236 259 269 268 252 259 250 228 239 251 254 273 251 253 274 189 128 230 224 219 221 244 271 305 286 275 272 261 70 343 328 64 133 330 168 183 150 162 126 152 130 105 103 106 123 124
257 265 240 240 254 267 259 236 249 261 268 264 261 262 245 225 247 259 251 248 249 199 306 310 306 257 222 207 217 232 248 269 279 255 236 268 108 192 233 43 101 297 38 217 159 164 195 136 115 123 137 142 142 138
246 246 245 246 257 266 258 244 253 262 272 269 261 251 269 219 243 255 257 224 198 209 273 289 197 196 197 193 199 200 214 242 261 288 345 237 272 305 308 201 101 102 58 298 101 74 59 96 103 164 145 140 144 138
239 239 242 246 252 261 268 256 249 251 250 342 281 254 261 250 248 248 338 305 325 193 249 265 183 159 178 179 176 188 185 226 258 266 228 310 228 253 243 249 127 157 156 87 86 105 105 126 135 157 135 128 137 131
235 237 238 240 249 259 268 241 224 250 207 96 344 310 272 286 275 250 219 199 250 246 261 276 268 218 183 189 184 195 189 199 188 249 177 207 297 247 250 102 147 139 115 112 106 68 103 141 135 141 131 160 140 142
231 233 235 236 243 254 249 231 193 211 257 196 285 276 254 228 230 241 131 151 211 252 286 260 258 115 219 233 173 177 231 197 133 229 216 203 208 229 79 127 120 89 114 120 121 120 126 140 149 154 159 163 165 149
229 224 223 228 235 240 218 217 190 238 242 207 227 201 214 174 118 142 166 205 203 216 219 256 298 176 287 207 182 210 192 240 190 207 153 226 223 92 111 66 96 115 121 130 180 158 150 146 162 157 176 188 180 172
224 222 211 214 223 232 214 187 185 254 194 208 206 224 99 153 152 199 221 202 195 213 208 226 235 219 155 276 225 334 252 205 232 165 207 206 214 180 156 139 116 177 207 204 249 261 185 231 180 174 182 179 189 175
223 211 198 203 213 225 195 174 215 252 244 281 297 249 159 190 202 219 203 199 222 223 181 177 176 197 152 324 311 215 260 274 213 140 211 226 191 153 150 152 139 211 224 217 221 220 232 229 244 228 176 172 182 159
229 192 188 196 209 207 199 185 252 264 272 225 216 192 210 189 206 221 196 188 195 190 136 145 152 160 161 134 173 254 233 252 262 221 207 137 129 142 130 138 144 177 216 220 212 216 224 208 212 237 206 166 166 163
204 174 178 187 199 185 204 198 142 26 271 245 195 199 227 202 224 216 234 48 81 135 177 161 123 169 149 174 217 249 204 262 198 218 195 135 142 128 149 128 151 96 114 205 207 194 205 199 210 209 215 186 196 189
157 161 168 181 187 192 171 189 205 256 273 251 227 243 223 249 256 281 56 55 86 132 166 135 171 120 108 140 212 259 227 202 197 130 104 127 140 131 129 136 125 98 105 163 199 204 205 188 190 189 197 191 194 178
146 148 176 149 176 170 215 243 234 195 261 249 244 275 311 319 302 293 184 203 182 158 114 48 107 101 128 236 225 215 192 272 55 101 122 137 130 131 121 111 92 79 78 108 194 72 297 234 173 185 194 176 165 176
184 163 149 161 182 196 218 253 221 218 233 252 298 265 266 314 349 318 344 287 144 170 161 177 186 167 211 258 203 268 45 68 95 115 126 139 138 109 106 96 87 82 75 69 90 79 198 232 152 173 178 178 165 168
158 128 142 158 181 198 233 221 259 252 251 200 238 243 69 285 240 225 223 225 201 180 198 207 165 165 189 239 190 113 109 88 101 110 137 128 127 116 94 80 66 58 55 63 73 105 43 65 125 140 134 139 147 159
111 124 133 145 275 266 225 202 216 261 212 236 61 74 330 226 222 191 176 188 196 207 250 258 211 203 167 90 128 106 116 131 145 148 138 152 148 143 93 63 36 37 40 28 13 84 107 83 81 128 140 159 156 150
99 111 175 249 252 255 239 189 215 263 258 22 9 179 212 137 121 163 163 166 206 223 217 210 130 166 161 13 16 19 54 87 166 180 188 181 183 174 189 279 354 46 277 153 160 302 123 133 124 146 158 200 149 142
203 104 235 240 219 258 284 305 282 331 326 327 295 42 194 122 147 177 181 215 210 236 185 51 96 75 15 358 332 314 289 265 261 264 275 235 188 195 178 197 221 248 250 191 275 131 201 149 130 121 156 127 136 141
86 289 294 202 266 264 257 284 302 332 283 287 346 63 348 85 85 50 348 238 250 45 24 6 6 5 329 308 300 299 300 304 276 275 291 285 260 243 212 205 217 223 206 209 231 233 123 119 122 113 99 103 101 101
265 236 239 287 319 23 267 303 299 335 311 14 334 265 277 352 31 319 249 255 74 37 8 356 353 329 298 287 279 268 260 257 247 239 237 233 240 248 252 235 232 231 229 198 212 207 104 106 115 118 123 121 111 99
157 343 344 344 300 310 296 297 293 289 283 256 278 305 38 1 311 243 271 115 66 9 347 333 313 295 280 261 254 248 241 231 231 230 224 218 221 221 219 232 229 214 251 189 185 130 124 122 118 129 137 136 134 132
7 346 309 279 276 294 5 359 318 294 329 355 323 3 349 287 283 20 7 358 360 327 308 300 289 267 264 270 265 255 238 211 206 206 199 199 199 202 210 215 234 198 217 232 185 115 130 129 134 139 141 142 142 139
57 42 15 6 0 6 348 336 9 354 344 1 11 339 349 23 4 7 12 338 301 303 300 292 287 286 274 247 256 263 278 180 182 192 181 183 184 183 184 186 185 195 216 235 152 127 130 135 137 143 146 150 159 163
57 53 14 352 294 288 272 314 2 30 17 10 359 346 13 5 15 6 323 310 298 301 298 289 272 260 273 292 275 259 192 174 194 156 148 162 175 186 182 179 184 186 190 209 124 137 139 130 139 147 142 150 155 144
43 46 51 51 291 66 5 25 23 14 10 0 341 24 33 10 349 327 281 291 300 298 301 339 350 346 8 19 65 75 91 109 112 115 127 144 156 172 199 182 193 126 122 112 128 131 136 139 152 151 161 164 154 144
58 51 340 44 74 65 34 15 23 32 356 351 14 34 33 336 270 267 290 299 325 7 27 23 20 22 26 54 51 52 78 107 125 124 123 132 149 159 152 144 152 112 110 113 92 124 132 142 149 172 174 142 139 146
12 345 79 51 56 55 34 50 59 49 20 11 20 107 331 296 278 309 346 17 17 21 25 31 26 20 19 18 43 45 31 64 80 109 120 127 134 135 106 108 110 108 110 114 114 114 105 144 190 218 138 135 130 119
26 66 74 75 70 100 94 93 82 67 43 25 11 5 4 301 322 355 7 13 30 28 21 24 25 15 17 24 19 46 41 35 71 73 83 92 97 100 100 100 102 107 112 118 125 127 148 184 159 133 136 133 134 140
90 111 96 97 108 108 119 69 63 55 42 31 16 6 24 49 34 4 350 5 18 29 25 19 39 35 39 22 36 41 29 41 26 32 82 96 98 101 106 106 104 108 108 122 163 174 152 136 143 146 139 142 146 133
94 95 102 101 111 116 95 122 108 91 73 63 44 31 20 42 50 5 353 6 20 20 20 27 28 38 48 68 61 31 29 44 42 46 53 49 54 91 109 114 115 112 115 117 112 129 131 125 125 133 141 132 130 136